Other Public Products
Issued by NWS Grand Forks, ND

Home | Current Version | Previous Version | Text Only | Print | Product List | Glossary Off
Versions: 1 2 3 4 5 6 7 8 9 10 11 12 13 14 15 16 17 18 19 20 21 22 23 24 25 26 27 28 29 30 31 32 33 34 35 36 37 38 39 40 41 42 43 44 45 46 47 48 49 50

000
FPUS83 KFGF 221910
OPUFGF
PRAIRIE TO PINES WEATHER ROUNDUP
NATIONAL WEATHER SERVICE EASTERN NORTH DAKOTA/GRAND FORKS ND
100 PM CST MON DEC 22 2014

 **SATELLITE DATA USED TO AUGMENT SKY COVER AT AUTOMATED STATIONS**
 *****  WEATHER ACROSS EASTERN NORTH DAKOTA  *****

CITY           SKY/WX    TMP DP  RH WIND       PRES   REMARKS
GRAND FORKS    LGT RAIN  37  36  96 E8        29.53S FOG
GRAND FORKS AF NOT AVBL
GRAND CITY NWS NOT AVBL
BUXTON         NOT AVBL
DEVILS LAKE    CLOUDY    34  32  93 NE12      29.51S VSB 1/2
FARGO          LGT RAIN  41  38  89 SE9       29.49F
WAHPETON ARPT  CLOUDY    36  34  93 SE9       29.48F
$$

 *****  WEATHER ACROSS CENTRAL AND WESTERN NORTH DAKOTA  *****

CITY           SKY/WX    TMP DP  RH WIND       PRES   REMARKS
JAMESTOWN      SNOW      34  33  96 NE9       29.45F VSB 1/4
BISMARCK       CLOUDY    30  28  92 N10       29.51R WCI  21
MINOT          CLOUDY    29  26  89 N9        29.56R WCI  20
MINOT AFB      NOT AVBL
GARRISON         N/A     29  27  92 NE9       29.53R WCI  20
WILLISTON      CLOUDY    27  22  81 N17       29.62S WCI  14
DICKINSON      SNOW      26  23  88 NW18      29.52R VSB 1/2 WCI  13
HETTINGER      LGT SNOW  27  23  85 NW25G33   29.52S FOG     WCI  12
$$

 *****  OTHER OBSERVATIONS NORTHEAST NORTH DAKOTA  *****

CITY           SKY/WX    TMP DP  RH WIND       PRES   REMARKS
WALHALLA       NOT AVBL
LANGDON          N/A    N/A N/A N/A MISG        N/A
CAVALIER       CLOUDY    34  34 100 NE7         N/A  FOG
GRAFTON        NOT AVBL
CANDO          CLOUDY    32  32 100 NE8       29.55R FOG     WCI  25
FORT TOTTEN      N/A     32  32 100 CALM      29.95S
ROLLA          MIX PCPN  30  30 100 N13       29.56S WCI  20
RUGBY          NOT AVBL
 ***** THE ABOVE OBSERVATIONS ARE NON NWS ARE NOT QUALITY
        CONTROLLED AND MAY MIS-REPORT RAIN FOR SNOW...
$$

 *****  OTHER OBSERVATIONS SOUTHEAST NORTH DAKOTA *****

CITY           SKY/WX    TMP DP  RH WIND       PRES   REMARKS
COOPERSTOWN    NOT AVBL
VALLEY CITY    LGT RAIN  34  34 100 E7        29.46F VSB<1/4
OAKES          NOT AVBL
GWINNER        CLOUDY    39  39 100 E13       29.45F
SHEYENNE NWR     N/A     38  38 100 SE8       29.95
BUFFALO        NOT AVBL
WYNDMERE         N/A     37  41 100 SE10        N/A
 ***** THE ABOVE OBSERVATIONS ARE NON NWS ARE NOT QUALITY
       CONTROLLED AND MAY MIS-REPORT RAIN FOR SNOW...
$$

  *****  WEATHER ACROSS NORTHERN MINNESOTA  *****

CITY           SKY/WX    TMP DP  RH WIND       PRES   REMARKS
FLAG ISLAND    CLOUDY    34  32  93 E7        29.62S
WARROAD        CLOUDY    34  30  86 E5        29.61S FOG
ROSEAU         CLOUDY    36  30  80 E6        29.60R HAZE
HALLOCK        PTSUNNY   36  34  93 E9        29.57F FOG
THF RVR FALLS  CLOUDY    36  36 100 E8        29.56R
HALSTAD          N/A     38  37  97 SE12        N/A
FOSSTON        CLOUDY    36  36 100 E7        29.54S
BAUDETTE       CLOUDY    35  33  92 E9        29.60F
WASKISH        CLOUDY    36  36 100 CALM      29.59F
CROOKSTON      MIX PCPN  37  36  93 E8        29.55S
$$
  *****  WEATHER ACROSS CENTRAL AND WEST MINNESOTA  *****

CITY           SKY/WX    TMP DP  RH WIND       PRES   REMARKS
BEMIDJI        CLOUDY    35  34  98 SE12G17   29.56S FOG
PARK RAPIDS    CLOUDY    37  35  92 SE9       29.54F
WADENA         CLOUDY    36  34  93 SE13      29.53S
DETROIT LAKES  CLOUDY    36  36 100 SE10G16   29.52S FOG
MOORHEAD       DRIZZLE   39  39 100 SE9       29.50F
FERGUS FALLS   CLOUDY    37  37 100 SE12G17   29.52S
ELBOW LAKE     DRIZZLE   37  36  99 SE10      29.48F
MORRIS MN      DRIZZLE   37  37 100 SE18      29.46F
STAPLES        LGT RAIN  36  36 100 SE8       29.55S
WHEATON        CLOUDY    36  36 100 E16       29.47F FOG
$$
  *****  WEATHER ELSEWHERE ACROSS MINNESOTA  *****

CITY           SKY/WX    TMP DP  RH WIND       PRES   REMARKS
DULUTH         SNOW      34  32  92 SE14      29.65F VSB 1/4 WCI  25
INTRNTL FALLS  CLOUDY    34  33  96 SE8       29.64S
ELY            DRIZZLE   34  32  93 SE6       29.67S
CLOQUET        SNOW      34  34 100 E6        29.65S VSB 1/4
BRAINERD       LGT RAIN  35  34  96 SE10      29.58F FOG
HIBBING        LGT SNOW  34  32  92 SE8       29.64S FOG
ALEXANDRIA     CLOUDY    35  34  96 SE13      29.51F
SAINT CLOUD    CLOUDY    38  34  85 E12       29.57F FOG
MINNEAPOLIS    LGT RAIN  36  34  92 SE14      29.60F FOG
$$

  *****  WEATHER ACROSS SOUTH DAKOTA  *****

CITY           SKY/WX    TMP DP  RH WIND       PRES   REMARKS
SIOUX FALLS    CLOUDY    39  38  96 CALM      29.40F
BROOKINGS      NOT AVBL
WATERTOWN      LGT RAIN  38  37  97 SE13      29.38F
HURON          CLOUDY    34  31  88 NW7       29.41F
SISSETON         N/A     38  38 100 SE14      29.42F
ABERDEEN       CLOUDY    35  33  92 NE5       29.41S FOG
MITCHELL       CLOUDY    37  36  96 NW9       29.42F
PIERRE         CLOUDY    36  29  75 NW31G39   29.43F
MOBRIDGE       LGT SNOW  32  29  88 N14       29.42S FOG     WCI  22
RAPID CITY     PTSUNNY   44  22  41 NW41G51   29.50S
$$

  *****  SOME WEATHER IN NEARBY STATES *****

CITY           SKY/WX    TMP DP  RH WIND       PRES   REMARKS
GLASGOW MT     CLOUDY    33  27  78 NW13      29.71R WCI  24
GREAT FALLS MT CLOUDY    39  23  52 W12       29.87R
CHEYENNE WY    CLOUDY    30  20  66 NW15G24   29.67F WCI  19
SCOTTSBLUFF NE SUNNY     40  24  53 NW22G32   29.63F
OMAHA NE       LGT RAIN  43  41  93 S10       29.44F FOG
DES MOINES IA  LGT RAIN  41  38  89 SE7       29.51F FOG
DAVENPORT IA   LGT RAIN  36  33  89 SE9       29.62F FOG
CHICAGO IL     LGT RAIN  35  32  88 E12       29.75F FOG
EAU CLAIRE WI  CLOUDY    38  33  82 SE7       29.67F
LA CROSSE WI   CLOUDY    41  33  73 SE10      29.67F
$$

  *****  SOME NATIONAL WEATHER *****

CITY           SKY/WX    TMP DP  RH WIND       PRES   REMARKS
LA GUARDIA NY  CLOUDY    41  37  86 NE15      30.23F
RALEIGH NC     DRIZZLE   38  35  89 NE6       30.07F FOG
ATLANTA GA     DRZL/FOG  46  44  93 E10       29.93F VSB 1/2
NEW ORLEANS LA PTSUNNY   75  66  73 S17       29.73F
OKLAHOMA CITY  PTSUNNY   55  40  56 NW21G28   29.58R
ALBUQUERQUE NM MOSUNNY   55  33  43 SW6       29.82F
SALT LAKE CITY CLOUDY    42  36  79 N5        30.00R
LOS ANGELES CA MOSUNNY   67  51  56 CALM      30.04F
BOISE ID       MOSUNNY   45  37  76 NW13      30.17S
SEATTLE WA     CLOUDY    48  39  71 S6        30.37F
$$

*** WEATHER ACROSS MANITOBA...SASKATCHEWAN AND ONTARIO ***
                ***ONTARIO***

CITY           SKY/WX    TMP DP  RH WIND       PRES   REMARKS
GERALDTON      DRZL/FOG  34  34 100 S7        29.82F VSB 1/2
THUNDER BAY    NOT AVBL
SIOUX LOOKOUT  LGT SNOW  34  32  93 E3        29.69F FOG
TORONTO        MOSUNNY   36  25  64 E8        30.10F
BIG TROUT LK   LGT SNOW  30  30 100 S3        29.78R
PICKLE LAKE    FLURRIES  32  30  93 SE6       29.74S
DRYDEN         LGT RAIN  34  32  93 SE7       29.67F
KENORA         LGT SNOW  34  32  93 E7        29.65S FOG
$$
                *** MANITOBA***

CITY           SKY/WX    TMP DP  RH WIND       PRES   REMARKS
BRANDON        CLOUDY    30  30 100 NE13      29.63R FOG     WCI  20
DAUPHIN        LGT SNOW  28  28 100 NE8       29.69S WCI  20
ISLAND LAKE    FLURRIES  30  28  93 NE3       29.78R
PILOT MOUND      N/A     32  32 100 NE10        N/A  WCI  24
THE PAS        NOT AVBL
THOMPSON       NOT AVBL
WINNIPEG       CLOUDY    34  32  93 NE8       29.65R
LYNN LAKE      LGT SNOW   9   9 100 N5        29.88R WCI   0
CHURCHILL      LGT SNOW  18  18 100 N10       29.94R WCI   6
GILLAM         MOCLDY    14  12  92 N8        29.90R WCI   3
$$
                ***SASKATCHEWAN***

CITY           SKY/WX    TMP DP  RH WIND       PRES   REMARKS
ESTEVAN        CLOUDY    28  28 100 N6        29.61R FOG     WCI  22
KINDERSLEY     FLURRIES  25  21  86 N12       29.80R WCI  14
LLOYDMINSTER   NOT AVBL
PRINCE ALBERT  NOT AVBL
REGINA         CLOUDY    25  23  93 N12       29.71R FOG     WCI  14


USA.gov is the U.S. government's official web portal to all federal, state and local government web resources and services.